TimeMST,TemperatureF,Dew PointF,Humidity,Sea Level PressureIn,VisibilityMPH,Wind Direction,Wind SpeedMPH,Gust SpeedMPH,PrecipitationIn,Events,Conditions,WindDirDegrees,DateUTC
12:55 AM,73.2,48.0,41,29.73,10.0,SW,5.8,-,N/A,,Clear,230,2012-10-21 07:55:00
1:55 AM,73.6,45.5,37,29.73,10.0,SW,9.2,-,N/A,,Clear,220,2012-10-21 08:55:00
2:55 AM,69.1,46.9,45,29.74,10.0,Calm,Calm,-,N/A,,Clear,0,2012-10-21 09:55:00
3:55 AM,66.4,46.8,49,29.73,10.0,ENE,3.5,-,N/A,,Clear,60,2012-10-21 10:55:00
4:55 AM,64.0,45.9,52,29.75,10.0,Calm,Calm,-,N/A,,Clear,0,2012-10-21 11:55:00
5:55 AM,62.4,45.3,54,29.77,10.0,NNW,5.8,-,N/A,,Clear,330,2012-10-21 12:55:00
6:55 AM,61.9,45.3,55,29.79,10.0,NW,6.9,-,N/A,,Clear,310,2012-10-21 13:55:00
7:55 AM,68.0,46.8,47,29.80,10.0,NNW,5.8,-,N/A,,Clear,330,2012-10-21 14:55:00
8:55 AM,73.6,46.9,39,29.81,10.0,North,3.5,-,N/A,,Clear,360,2012-10-21 15:55:00
9:55 AM,77.5,49.3,37,29.81,10.0,SSE,5.8,-,N/A,,Clear,150,2012-10-21 16:55:00
10:55 AM,80.6,49.8,34,29.79,10.0,Calm,Calm,-,N/A,,Clear,0,2012-10-21 17:55:00
11:55 AM,82.2,49.5,32,29.78,10.0,Calm,Calm,-,N/A,,Clear,0,2012-10-21 18:55:00
12:55 PM,84.4,48.2,28,29.75,10.0,SSW,5.8,-,N/A,,Clear,210,2012-10-21 19:55:00
1:55 PM,85.5,48.6,28,29.73,10.0,Calm,Calm,-,N/A,,Clear,0,2012-10-21 20:55:00
2:55 PM,86.4,49.5,28,29.72,10.0,SW,12.7,-,N/A,,Clear,220,2012-10-21 21:55:00
3:55 PM,85.3,51.1,31,29.72,10.0,WSW,11.5,-,N/A,,Clear,240,2012-10-21 22:55:00
4:55 PM,84.4,54.3,36,29.73,10.0,WSW,15.0,-,N/A,,Clear,240,2012-10-21 23:55:00
5:55 PM,82.0,53.2,37,29.74,10.0,WSW,12.7,-,N/A,,Partly Cloudy,240,2012-10-22 00:55:00
6:55 PM,78.8,53.6,42,29.76,10.0,WSW,8.1,-,N/A,,Clear,240,2012-10-22 01:55:00
7:55 PM,76.8,54.3,46,29.78,10.0,SW,8.1,-,N/A,,Clear,230,2012-10-22 02:55:00
8:55 PM,75.7,55.0,49,29.78,10.0,SW,6.9,-,N/A,,Clear,220,2012-10-22 03:55:00
9:55 PM,73.2,54.3,51,29.78,10.0,WSW,5.8,-,N/A,,Clear,240,2012-10-22 04:55:00
10:55 PM,72.9,51.8,47,29.78,10.0,SSW,5.8,-,N/A,,Clear,200,2012-10-22 05:55:00
11:55 PM,71.6,51.6,49,29.78,10.0,SSW,3.5,-,N/A,,Clear,200,2012-10-22 06:55:00